Location: Goll?ig?dem
(16.6773°N, 80.7332°E)
Time: 07:56:33
(UTC+00:00)

Cosmos 2322 Rocket - Pass Details

Date: 21 April 2021
Orbit: 831 x 852 km, 71.0° (Epoch: 06 May)

Event Time Altitude Azimuth Distance (km) Brightness Sun altitude
Rises 14:10:48 0° 330° (NNW) 3,411 6.1 -18.5°
Reaches altitude 10° 14:13:24 10° 323° (NW) 2,474 5.4 -19.1°
Maximum altitude 14:18:36 38° 256° (WSW) 1,270 3.6 -20.3°
Drops below altitude 10° 14:23:48 10° 190° (S) 2,464 4.5 -21.4°
Enters shadow 14:26:16 - 182° (S) 3,344 5.1 -22.0°
